User: anonymous   Login
Location: Gallinara
(44.0333°N, 8.2333°E)
Time: 20:49:49
(UTC+00:00)
Language:

Cosmos 2360 Rocket - Orbit

View from above orbital plane
View from above orbital plane
View from above satellite
View from above satellite

Ground track
Ground track

The orbit data is extracted from the following two-line orbital elements,

1 25407U 98045B   21209.86591763  .00000261  00000-0  15700-3 0  9998
2 25407  71.0119 123.4598 0005502  67.5966 292.5739 14.15840897188878
Epoch (UTC): 28 July 2021 20:46:55
Eccentricity: 0.0005502
inclination: 71.0119°
perigee height: 835 km
apogee height: 843 km
right ascension of ascending node: 123.4598°
argument of perigee: 67.5966°
revolutions per day: 14.15840897
mean anomaly at epoch: 292.5739°
orbit number at epoch: 18887

The dashed part of the orbit path shows where the satellite is in the earth's shadow,  

DLR